FW7611 Weather Reports


Display with metric or nautical units.
time (UTC)temp
F
wind
direction
speed
MPH
gust
MPH
rain 1hr
in
rain 24hr
in
rain mn
in
humidity
%
barometer
mb
20260902164543 94 40 0.0 2.0 0.00 0.00 0.00 47 1021.6
20260902163057 92 131 2.0 6.0 0.00 0.00 0.00 50 1021.7
20260902161541 93 0 0.0 3.0 0.00 0.00 0.00 50 1021.9
20260902160048 92 296 1.0 4.0 0.00 0.00 0.00 54 1021.8
20260902154538 91 349 0.0 2.0 0.00 0.00 0.00 54 1021.9
20260902153042 90 80 1.0 2.0 0.00 0.00 0.00 56 1022.0
20260902151555 89 0 0.0 2.0 0.00 0.00 0.00 59 1022.0
20260902150046 89 167 0.0 4.0 0.00 0.00 0.00 59 1022.0
20260902144548 88 0 0.0 2.0 0.00 0.00 0.00 65 1021.8
20260902143042 87 256 0.0 2.0 0.00 0.00 0.00 65 1021.8
20260902141547 86 289 0.0 2.0 0.00 0.00 0.00 69 1021.8
20260902140047 83 323 0.0 2.0 0.00 0.00 0.00 72 1021.7
20260902134547 82 293 0.0 2.0 0.00 0.00 0.00 74 1021.7
20260902133040 81 141 0.0 2.0 0.00 0.00 0.00 76 1021.7
20260902131558 80 0 0.0 2.0 0.00 0.00 0.00 77 1021.6
20260902130047 78 312 0.0 2.0 0.00 0.00 0.00 78 1021.9
20260902124541 76 0 0.0 0.0 0.00 0.00 0.00 82 1022.0
20260902123106 76 0 0.0 2.0 0.00 0.00 0.00 82 1021.9
20260902121556 74 0 0.0 2.0 0.00 0.00 0.00 86 1021.7
20260902120100 73 298 0.0 2.0 0.00 0.00 0.00 87 1021.5
20260902114541 73 324 0.0 1.0 0.00 0.00 0.00 88 1021.3
20260902113051 72 0 0.0 0.0 0.00 0.00 0.00 89 1021.2
20260902111555 72 0 0.0 0.0 0.00 0.00 0.00 90 1020.9
20260902110047 72 0 0.0 0.0 0.00 0.00 0.00 89 1021.1
20260902104542 72 0 0.0 0.0 0.00 0.00 0.00 89 1021.0
20260902103043 72 0 0.0 0.0 0.00 0.00 0.00 90 1020.9
20260902101546 71 0 0.0 0.0 0.00 0.00 0.00 91 1020.8
20260902100101 71 0 0.0 0.0 0.00 0.00 0.00 91 1021.0
20260902094541 71 0 0.0 2.0 0.00 0.00 0.00 91 1020.9
20260902093050 72 0 0.0 0.0 0.00 0.00 0.00 90 1020.9
20260902091550 72 0 0.0 2.0 0.00 0.00 0.00 91 1020.8
20260902090040 72 0 0.0 0.0 0.00 0.00 0.00 91 1020.6
20260902084548 72 0 0.0 0.0 0.00 0.00 0.00 91 1020.6
20260902083045 72 0 0.0 0.0 0.00 0.00 0.00 90 1020.6
20260902081542 73 0 0.0 0.0 0.00 0.00 0.00 90 1020.5
20260902080054 73 0 0.0 0.0 0.00 0.00 0.00 90 1020.4
20260902074553 73 0 0.0 0.0 0.00 0.00 0.00 90 1020.5
20260902073044 73 0 0.0 0.0 0.00 0.00 0.00 89 1020.5
20260902071541 74 0 0.0 0.0 0.00 0.00 0.00 88 1020.6
20260902070052 74 0 0.0 0.0 0.00 0.00 0.00 90 1020.6
20260902064548 73 0 0.0 0.0 0.00 0.00 0.00 90 1020.5
20260902063055 74 0 0.0 0.0 0.00 0.00 0.00 89 1020.5
20260902060048 75 0 0.0 0.0 0.00 0.00 0.00 87 1020.5
20260902054548 75 0 0.0 0.0 0.00 0.00 0.00 86 1020.4
20260902053046 76 0 0.0 0.0 0.00 0.00 0.00 84 1020.4
20260902051545 76 0 0.0 0.0 0.00 0.00 0.00 85 1020.2
20260902050100 77 0 0.0 0.0 0.00 0.00 0.00 83 1020.2
20260902044551 77 0 0.0 0.0 0.00 0.00 0.00 82 1020.1
20260902043047 78 0 0.0 2.0 0.00 0.00 0.00 80 1020.1
20260902041550 78 0 0.0 1.0 0.00 0.00 0.00 80 1020.3
20260902040054 78 0 0.0 1.0 0.00 0.00 0.00 80 1020.2
20260902034547 78 319 0.0 1.0 0.00 0.00 0.00 82 1020.3
20260902033049 78 0 0.0 0.0 0.00 0.00 0.00 81 1020.2
20260902031541 79 0 0.0 0.0 0.00 0.00 0.00 80 1020.2
20260902030045 79 0 0.0 1.0 0.00 0.00 0.00 78 1020.1
20260902024555 79 0 0.0 2.0 0.00 0.00 0.00 79 1020.2
20260902023045 79 313 0.0 2.0 0.00 0.00 0.00 79 1020.1
20260902021539 79 0 0.0 2.0 0.00 0.00 0.00 79 1020.0
20260902020053 79 0 0.0 2.0 0.00 0.00 0.00 79 1020.0
20260902014546 79 0 0.0 0.0 0.00 0.00 0.00 80 1019.7
20260902013043 79 0 0.0 2.0 0.00 0.00 0.00 78 1019.5
20260902011541 80 0 0.0 1.0 0.00 0.00 0.00 77 1019.5
20260902010046 80 0 0.0 1.0 0.00 0.00 0.00 76 1019.4
20260902004548 81 0 0.0 0.0 0.00 0.00 0.00 71 1019.2
20260902003044 81 0 0.0 0.0 0.00 0.00 0.00 71 1019.1
20260902001550 82 0 0.0 0.0 0.00 0.00 0.00 71 1019.2
20260902000044 82 0 0.0 0.0 0.00 0.00 0.00 71 1019.1
20260901234553 83 0 0.0 0.0 0.00 0.00 0.00 69 1019.2
20260901233043 85 0 0.0 0.0 0.00 0.00 0.00 67 1019.2
20260901231553 86 0 0.0 0.0 0.00 0.00 0.00 66 1019.4
20260901224541 88 313 0.0 2.0 0.00 0.00 0.00 59 1019.4
20260901223050 89 0 0.0 2.0 0.00 0.00 0.00 57 1019.6
20260901221542 91 302 0.0 2.0 0.00 0.00 0.00 52 1019.5
20260901220106 91 0 1.0 3.0 0.00 0.00 0.00 51 1019.5
20260901214552 91 280 0.0 2.0 0.00 0.00 0.00 51 1019.3
20260901213046 92 306 0.0 2.0 0.00 0.00 0.00 47 1019.3
20260901211540 92 360 0.0 3.0 0.00 0.00 0.00 47 1019.4
20260901210047 92 322 0.0 3.0 0.00 0.00 0.00 47 1019.5
20260901204546 92 333 0.0 4.0 0.00 0.00 0.00 47 1019.6
20260901203054 92 346 1.0 4.0 0.00 0.00 0.00 48 1019.8
20260901201553 92 0 0.0 4.0 0.00 0.00 0.00 48 1019.7
20260901200047 92 286 1.0 4.0 0.00 0.00 0.00 49 1019.8
20260901194547 92 318 1.0 3.0 0.00 0.00 0.00 49 1020.0
20260901193042 92 20 1.0 2.0 0.00 0.00 0.00 49 1020.0
20260901191601 92 63 1.0 3.0 0.00 0.00 0.00 48 1020.1
20260901190046 92 352 1.0 4.0 0.00 0.00 0.00 49 1020.3
20260901184607 92 296 2.0 5.0 0.00 0.00 0.00 48 1020.3
20260901183049 94 331 0.0 2.0 0.00 0.00 0.00 46 1020.5
20260901181553 93 329 1.0 3.0 0.00 0.00 0.00 49 1020.4
20260901180041 93 52 1.0 3.0 0.00 0.00 0.00 46 1020.5
20260901174555 93 256 0.0 4.0 0.00 0.00 0.00 49 1020.6
20260901173045 92 318 1.0 3.0 0.00 0.00 0.00 51 1020.8
20260901171543 93 271 1.0 3.0 0.00 0.00 0.00 50 1020.9
20260901170041 93 306 0.0 3.0 0.00 0.00 0.00 50 1021.0